STARLINK-35330, 65791

Orbit data source: Space-Track

STARLINK-35330, 65791 is a payload satellite owned by SpaceX/Seattle (US) in SSO that was launched on Fri, 26 Sep 2025 UTC via an FALCON 9 launch vehicle from the Air Force Western Test Range (AFWTR). Payload-class satellites include a variety of spacecraft equipped with specific instruments for various scientific and technological missions. These include communications satellites like Starlink; space stations such as the ISS; scientific satellites like the Hubble; Earth observation satellites from companies like Planet Labs, Umbra, and HawkEye 360; GPS; miniature CubeSats for education and research; and military/defense satellites.

Loading next visibility...
Identifier
65791, 2025-218A
Orbit
SSO
Country
Flag of USUS
Related business
Manufacturer
SpaceX/Seattle
Mission
Operational Commercial Communications
Bus & Motor
STARLINK V2MO, Unknown motor
Mass
575 kg wet, ~530 kg dry
Launch date (UTC)
2025-09-26 (5 months ago)
Launch vehicle
FALCON 9
Launch site
Air Force Western Test Range (AFWTR)
Object type
Payload
Rocket body
Debris
Shape & HBR
Box + 2 Pan, 17.7 m
Radar Cross Section
36.964 m²

Expand to show TLE details & history
Last TLE update: 8 hours ago

TLE from 8 hours ago
0 STARLINK-35330
1 65791U 25218A   26062.63027318  .00003911  00000-0  27511-3 0  9995
2 65791  97.6023 286.9151 0001779  87.7021 272.4409 15.05653411 24058
Epoch: 2026-03-03T15:07Z
TLE epoch observation values (Epoch: 2026-03-03T15:07:35.602Z)
Latitude
-0.00009°
Longitude
-101.38981°
Altitude
552.514 km
Speed
7.586 km/s
True Right ascension
19h 07m 39s
True Declination
0° 00' 00"
Sunlit
Object was in daylight at epoch
Visualization orbit readout
Latitude
Unknown
Longitude
Unknown
Altitude
Unknown
Speed
Unknown
Apparent Right ascension
Unknown
Apparent Declination
Unknown
Sunlit
N/A
Visualization observer readout
Local Sidereal Time
02:43:51
Azimuth
Unknown
Elevation
Unknown
Doppler factor
Unknown
Orbital elements
Apogee altitude
547.726 km
Perigee altitude
545.262 km
Semi-major axis
6,924.631 km
Eccentricity
0.00018
Inclination
97.6023°
RAAN
286.9151°
Arg. of periapsis
87.7021°
True anomaly
272.42053°
Mean anomaly
272.4409°
Eccentric anomaly
272.43072°
Mean motion
3.76659 °/min
Orbital period
95.58 mins
BSTAR
0.00027511
Loading maneuver chart data...
Computing Atmospheric mass density...
Loading historical data...
Loading historical data...
Loading historical data...
Loading historical data...
Loading historical data...
Loading historical data...
Loading historical data...

Documentation

Showing up to 5 results
|